Weather in Beliy

Russia / Tver Oblast     55°50′01″N   32°56′19″E
temp.,
°C
wind,
m/s
gust,
m/s
humid.,
%
clouds,
%
prec.,
mm/h
press.,
hPa
HPBL,
m
17 june, thu
thu1700:00+12ne23725 0.0 102139
03:00+10ne23735 0.0 102344
06:00+12ne24735 0.0 1023114
09:00+19e125057 0.0 1024511
12:00+24ese11382 0.0 10241627
15:00+25nw11355 0.0 10241874
18:00+24n12420 0.0 10241756
21:00+17se357951 0.0 102595
18 june, fri
fri1800:00+14sse2274100 0.0 102630
03:00+13sse227899 0.0 102718
06:00+15sse138028 0.0 102774
09:00+21s235619 0.0 1027515
12:00+25s22435 0.0 10261529
15:00+26s33395 0.0 10251789
18:00+25s33480 0.0 10251335
21:00+19s23730 0.0 102539
19 june, sat
sat1900:00+15ssw23871 0.0 102654
03:00+14s24915 0.0 102668
06:00+15s25885 0.0 1027140
09:00+21ssw34635 0.0 1026607
12:00+25s33485 0.0 10251380
15:00+27s33400 0.0 10241642
18:00+25s33500 0.0 10231314
21:00+19s23760 0.0 102346
20 june, sun
sun2000:00+16s258843 0.0 102474
03:00+14s23890 0.0 102456
06:00+16s13862 0.0 102489
09:00+22s23640 0.0 1023570
12:00+26s34492 0.0 10221376
15:00+28s33441 0.0 10211622
18:00+27s23521 0.0 10201380
21:00+21s24805 0.0 102177
21 june, mon
mon2100:00+18s238665 0.0 102158
03:00+17sse229083 0.0 102131
06:00+18sse12885 0.0 102281
09:00+24se23627 0.0 1021549
12:00+28se33475 0.0 10201204
15:00+29se34425 0.0 10201423
18:00+28ese23498 0.0 10191035
21:00+21se27816 0.0 1020139